| time (UTC) | temp C | wind direction | speed KPH | gust KPH | rain 1hr cm | rain 24hr cm | rain mn cm | humidity % | barometer mb |
| 20260509053041 | 7 | 145 | 9.7 | 0.0 | 0.00 | 0.00 | 0.00 | 50 | 980.1 |
| 20260509051525 | 6 | 140 | 8.0 | 0.0 | 0.00 | 0.00 | 0.00 | 50 | 980.0 |
| 20260509050056 | 7 | 146 | 8.0 | 0.0 | 0.00 | 0.00 | 0.00 | 50 | 980.0 |
| 20260509044526 | 7 | 149 | 8.0 | 0.0 | 0.00 | 0.00 | 0.00 | 44 | 980.9 |
| 20260509043042 | 7 | 141 | 8.0 | 0.0 | 0.00 | 0.00 | 0.00 | 47 | 979.8 |
| 20260509041525 | 7 | 142 | 8.0 | 0.0 | 0.00 | 0.00 | 0.00 | 47 | 979.8 |
| 20260509040057 | 7 | 152 | 8.0 | 0.0 | 0.00 | 0.00 | 0.00 | 47 | 979.8 |
| 20260509034525 | 8 | 166 | 6.4 | 0.0 | 0.00 | 0.00 | 0.00 | 44 | 980.6 |
| 20260509033041 | 8 | 170 | 6.4 | 0.0 | 0.00 | 0.00 | 0.00 | 37 | 981.3 |
| 20260509031525 | 8 | 163 | 8.0 | 0.0 | 0.00 | 0.00 | 0.00 | 37 | 981.3 |
| 20260509030055 | 9 | 162 | 8.0 | 0.0 | 0.00 | 0.00 | 0.00 | 37 | 981.3 |
| 20260509024525 | 10 | 166 | 8.0 | 0.0 | 0.00 | 0.00 | 0.00 | 29 | 981.6 |
| 20260509023043 | 10 | 178 | 9.7 | 0.0 | 0.00 | 0.00 | 0.00 | 37 | 981.6 |
| 20260509021525 | 10 | 183 | 6.4 | 0.0 | 0.00 | 0.00 | 0.00 | 37 | 981.5 |
| 20260509020053 | 10 | 199 | 6.4 | 0.0 | 0.00 | 0.00 | 0.00 | 37 | 981.5 |
| 20260509014525 | 10 | 208 | 6.4 | 0.0 | 0.00 | 0.00 | 0.00 | 36 | 981.3 |
| 20260509013040 | 11 | 232 | 4.8 | 0.0 | 0.00 | 0.00 | 0.00 | 36 | 981.3 |
| 20260509011524 | 12 | 242 | 4.8 | 0.0 | 0.00 | 0.00 | 0.00 | 36 | 981.4 |
| 20260509010050 | 12 | 266 | 4.8 | 0.0 | 0.00 | 0.00 | 0.00 | 36 | 981.4 |
| 20260509004524 | 12 | 273 | 6.4 | 0.0 | 0.00 | 0.00 | 0.00 | 29 | 981.1 |
| 20260509003043 | 13 | 262 | 6.4 | 0.0 | 0.00 | 0.00 | 0.00 | 29 | 982.3 |
| 20260509001524 | 13 | 270 | 6.4 | 0.0 | 0.00 | 0.00 | 0.00 | 29 | 982.3 |
| 20260509000056 | 14 | 265 | 8.0 | 0.0 | 0.00 | 0.00 | 0.00 | 29 | 982.3 |
| 20260508234525 | 15 | 267 | 11.3 | 0.0 | 0.00 | 0.00 | 0.00 | 25 | 981.6 |
| 20260508233044 | 15 | 266 | 12.9 | 0.0 | 0.00 | 0.00 | 0.00 | 23 | 982.1 |
| 20260508231526 | 15 | 267 | 12.9 | 0.0 | 0.00 | 0.00 | 0.00 | 23 | 982.1 |
| 20260508230050 | 15 | 273 | 14.5 | 0.0 | 0.00 | 0.00 | 0.00 | 23 | 982.1 |
| 20260508224526 | 16 | 274 | 16.1 | 0.0 | 0.00 | 0.00 | 0.00 | 24 | 982.1 |
| 20260508223044 | 15 | 274 | 17.7 | 0.0 | 0.00 | 0.00 | 0.00 | 21 | 983.0 |
| 20260508221527 | 16 | 274 | 17.7 | 0.0 | 0.00 | 0.00 | 0.00 | 21 | 983.0 |
| 20260508220050 | 16 | 272 | 19.3 | 0.0 | 0.00 | 0.00 | 0.00 | 21 | 983.0 |
| 20260508214527 | 16 | 269 | 19.3 | 0.0 | 0.00 | 0.00 | 0.00 | 23 | 983.5 |
| 20260508213044 | 16 | 264 | 19.3 | 0.0 | 0.00 | 0.00 | 0.00 | 23 | 982.9 |
| 20260508211527 | 16 | 257 | 17.7 | 0.0 | 0.00 | 0.00 | 0.00 | 23 | 982.9 |
| 20260508210054 | 16 | 256 | 19.3 | 0.0 | 0.00 | 0.00 | 0.00 | 23 | 982.9 |
| 20260508204527 | 16 | 254 | 19.3 | 0.0 | 0.00 | 0.00 | 0.00 | 28 | 983.2 |
| 20260508203045 | 16 | 250 | 19.3 | 0.0 | 0.00 | 0.00 | 0.00 | 27 | 982.9 |
| 20260508201526 | 17 | 250 | 16.1 | 0.0 | 0.00 | 0.00 | 0.00 | 27 | 982.9 |
| 20260508200051 | 17 | 245 | 12.9 | 0.0 | 0.00 | 0.00 | 0.00 | 19 | 982.9 |
| 20260508194527 | 17 | 242 | 14.5 | 0.0 | 0.00 | 0.00 | 0.00 | 22 | 983.1 |
| 20260508193041 | 17 | 246 | 14.5 | 0.0 | 0.00 | 0.00 | 0.00 | 22 | 983.1 |
| 20260508191526 | 17 | 262 | 16.1 | 0.0 | 0.00 | 0.00 | 0.00 | 22 | 983.2 |
| 20260508190050 | 17 | 258 | 14.5 | 0.0 | 0.00 | 0.00 | 0.00 | 22 | 983.2 |
| 20260508184527 | 16 | 253 | 16.1 | 0.0 | 0.00 | 0.00 | 0.00 | 26 | 983.7 |
| 20260508183046 | 16 | 243 | 16.1 | 0.0 | 0.00 | 0.00 | 0.00 | 28 | 983.4 |
| 20260508181526 | 16 | 244 | 16.1 | 0.0 | 0.00 | 0.00 | 0.00 | 28 | 983.4 |
| 20260508180054 | 16 | 245 | 16.1 | 0.0 | 0.00 | 0.00 | 0.00 | 28 | 983.4 |
| 20260508174527 | 16 | 243 | 16.1 | 0.0 | 0.00 | 0.00 | 0.00 | 31 | 984.4 |
| 20260508173045 | 16 | 243 | 16.1 | 0.0 | 0.00 | 0.00 | 0.00 | 31 | 984.4 |
| 20260508171526 | 15 | 242 | 16.1 | 0.0 | 0.00 | 0.00 | 0.00 | 31 | 984.4 |
| 20260508170052 | 15 | 249 | 16.1 | 0.0 | 0.00 | 0.00 | 0.00 | 32 | 984.4 |
| 20260508164526 | 15 | 250 | 16.1 | 0.0 | 0.00 | 0.00 | 0.00 | 34 | 984.6 |
| 20260508163045 | 15 | 246 | 14.5 | 0.0 | 0.00 | 0.00 | 0.00 | 34 | 984.8 |
| 20260508161527 | 14 | 242 | 12.9 | 0.0 | 0.00 | 0.00 | 0.00 | 34 | 984.8 |
| 20260508160055 | 13 | 236 | 12.9 | 0.0 | 0.00 | 0.00 | 0.00 | 34 | 984.8 |
| 20260508154527 | 13 | 229 | 11.3 | 0.0 | 0.00 | 0.00 | 0.00 | 41 | 985.8 |
| 20260508153046 | 12 | 208 | 9.7 | 0.0 | 0.00 | 0.00 | 0.00 | 45 | 984.7 |
| 20260508151526 | 12 | 201 | 9.7 | 0.0 | 0.00 | 0.00 | 0.00 | 45 | 984.7 |
| 20260508150054 | 11 | 201 | 9.7 | 0.0 | 0.00 | 0.00 | 0.00 | 45 | 984.7 |
| 20260508144527 | 11 | 195 | 8.0 | 0.0 | 0.00 | 0.00 | 0.00 | 62 | 984.9 |
| 20260508143044 | 11 | 198 | 8.0 | 0.0 | 0.00 | 0.00 | 0.00 | 60 | 985.1 |
| 20260508141527 | 10 | 191 | 8.0 | 0.0 | 0.00 | 0.00 | 0.00 | 60 | 985.1 |
| 20260508140059 | 10 | 188 | 6.4 | 0.0 | 0.00 | 0.00 | 0.00 | 63 | 984.9 |
| 20260508134527 | 9 | 189 | 6.4 | 0.0 | 0.00 | 0.00 | 0.00 | 71 | 984.8 |
| 20260508133042 | 8 | 189 | 8.0 | 0.0 | 0.00 | 0.00 | 0.00 | 71 | 984.8 |
| 20260508131527 | 7 | 189 | 8.0 | 0.0 | 0.00 | 0.00 | 0.00 | 71 | 984.8 |
| 20260508130057 | 7 | 187 | 8.0 | 0.0 | 0.00 | 0.00 | 0.00 | 71 | 984.8 |
| 20260508124527 | 6 | 180 | 8.0 | 0.0 | 0.00 | 0.00 | 0.00 | 85 | 984.1 |
| 20260508123045 | 6 | 188 | 6.4 | 0.0 | 0.00 | 0.00 | 0.00 | 84 | 984.6 |
| 20260508121526 | 5 | 180 | 4.8 | 0.0 | 0.00 | 0.00 | 0.00 | 84 | 984.6 |
| 20260508114526 | 3 | 156 | 3.2 | 0.0 | 0.00 | 0.00 | 0.00 | 84 | 984.2 |
| 20260508113047 | 2 | 148 | 3.2 | 0.0 | 0.00 | 0.00 | 0.00 | 79 | 984.8 |
| 20260508111526 | 2 | 132 | 3.2 | 0.0 | 0.00 | 0.00 | 0.00 | 79 | 984.9 |
| 20260508110051 | 2 | 135 | 4.8 | 0.0 | 0.00 | 0.00 | 0.00 | 79 | 984.9 |
| 20260508104529 | 2 | 138 | 3.2 | 0.0 | 0.00 | 0.00 | 0.00 | 75 | 983.9 |
| 20260508103046 | 2 | 127 | 3.2 | 0.0 | 0.00 | 0.00 | 0.00 | 71 | 984.9 |
| 20260508101529 | 2 | 114 | 3.2 | 0.0 | 0.00 | 0.00 | 0.00 | 71 | 985.0 |
| 20260508100050 | 2 | 114 | 3.2 | 0.0 | 0.00 | 0.00 | 0.00 | 71 | 985.0 |
| 20260508094528 | 2 | 117 | 3.2 | 0.0 | 0.00 | 0.00 | 0.00 | 70 | 984.2 |
| 20260508093042 | 3 | 114 | 3.2 | 0.0 | 0.00 | 0.00 | 0.00 | 74 | 985.0 |
| 20260508091529 | 3 | 135 | 3.2 | 0.0 | 0.00 | 0.00 | 0.00 | 74 | 985.0 |
| 20260508090054 | 3 | 139 | 3.2 | 0.0 | 0.00 | 0.00 | 0.00 | 74 | 985.0 |
| 20260508084528 | 3 | 156 | 3.2 | 0.0 | 0.00 | 0.00 | 0.00 | 73 | 984.4 |
| 20260508083047 | 3 | 188 | 4.8 | 0.0 | 0.00 | 0.00 | 0.00 | 76 | 984.3 |
| 20260508081528 | 3 | 176 | 4.8 | 0.0 | 0.00 | 0.00 | 0.00 | 76 | 984.3 |
| 20260508080055 | 3 | 165 | 4.8 | 0.0 | 0.00 | 0.00 | 0.00 | 76 | 984.3 |
| 20260508074529 | 3 | 166 | 3.2 | 0.0 | 0.00 | 0.00 | 0.00 | 85 | 985.1 |
| 20260508073047 | 3 | 185 | 3.2 | 0.0 | 0.00 | 0.00 | 0.00 | 85 | 985.1 |
| 20260508071528 | 3 | 198 | 4.8 | 0.0 | 0.00 | 0.00 | 0.00 | 85 | 985.1 |
| 20260508070057 | 3 | 200 | 6.4 | 0.0 | 0.00 | 0.00 | 0.00 | 85 | 985.1 |
| 20260508064527 | 3 | 199 | 6.4 | 0.0 | 0.00 | 0.00 | 0.00 | 80 | 984.7 |
| 20260508063043 | 4 | 193 | 4.8 | 0.0 | 0.00 | 0.00 | 0.00 | 81 | 985.2 |
| 20260508061528 | 5 | 198 | 3.2 | 0.0 | 0.00 | 0.00 | 0.00 | 81 | 985.2 |
| 20260508060104 | 4 | 212 | 3.2 | 0.0 | 0.00 | 0.00 | 0.00 | 81 | 985.2 |
| 20260508054527 | 4 | 212 | 3.2 | 0.0 | 0.00 | 0.00 | 0.00 | 78 | 985.9 |